Location: Unnamed
(51.5169°N, 0.1311°W)
Time: 05:37:13
(UTC+01:00)

Vanguard 1 - Pass Details

Date: 14 August 2024
Orbit: 649 x 3825 km, 34.2° (Epoch: 16 September)

Event Time Altitude Azimuth Distance (km) Brightness Sun altitude
Rises 00:26:43 0° 241° (WSW) 4,470 13.3 -23.7°
Reaches altitude 10° 00:29:29 10° 233° (SW) 3,828 12.8 -23.8°
Maximum altitude 00:38:54 37° 170° (S) 3,233 12.1 -24.0°
Drops below altitude 10° 00:54:23 10° 113° (ESE) 6,265 13.9 -24.2°
Sets 01:00:34 0° 107° (ESE) 7,638 14.4 -24.2°
